THORAD AGENA D DEB, 22532

Orbit data source: Space-Track

THORAD AGENA D DEB, 22532 is space debris in SSO originally from a launch on Wed, 08 Apr 1970 UTC launched from the Air Force Western Test Range (AFWTR). Debris objects in space refer to the collection of defunct objects orbiting the Earth. Examples of debris include non-operational satellites, rocket bodies, and fragments generated from explosions, collisions, or faulty payload assembly.

Loading next visibility...
Identifier
22532, 1970-025QN
Orbit
SSO
Country
Flag of USUS
Related business
Manufacturer
Unknown
Mission
Spacecraft
Bus & Motor
Unknown
Mass
Unknown
Launch date (UTC)
1970-04-08 (56 years ago)
Launch vehicle
Unknown
Launch site
Air Force Western Test Range (AFWTR)
Object type
Payload
Rocket body
Debris
Shape & HBR
Unknown shape, 0.1 m
Radar Cross Section
Small (<0.1 m²)

Expand to show TLE details & history
Last TLE update: 14 hours ago

TLE from 14 hours ago
0 THORAD AGENA D DEB
1 22532U 70025QN  25353.05232701  .00000993  00000-0  11850-2 0  9994
2 22532 100.0865 168.3004 0005088 308.1157 179.5972 13.70024956627983
Epoch: 2025-12-19T01:15Z
TLE epoch observation values (Epoch: 2025-12-19T01:15:21.053Z)
Latitude
51.25476°
Longitude
-105.69622°
Altitude
1,011.38 km
Speed
7.349 km/s
True Right ascension
00h 04m 09s
True Declination
51° 05' 33"
Sunlit
Object was in daylight at epoch
Visualization orbit readout
Latitude
Unknown
Longitude
Unknown
Altitude
Unknown
Speed
Unknown
Apparent Right ascension
Unknown
Apparent Declination
Unknown
Sunlit
N/A
Visualization observer readout
Local Sidereal Time
14:19:40
Azimuth
Unknown
Elevation
Unknown
Doppler factor
Unknown
Orbital elements
Apogee altitude
1,000.529 km
Perigee altitude
993.024 km
Semi-major axis
7,374.914 km
Eccentricity
0.00051
Inclination
100.0865°
RAAN
168.3004°
Arg. of periapsis
308.1157°
True anomaly
179.59761°
Mean anomaly
179.5972°
Eccentric anomaly
179.5974°
Mean motion
3.42695 °/min
Orbital period
105.05 mins
BSTAR
0.001185
Loading maneuver chart data...
Computing Atmospheric mass density...

Documentation

Showing up to 5 results
|